| time (UTC) | temp F | wind direction | speed MPH | gust MPH | rain 1hr in | rain 24hr in | rain mn in | humidity % | barometer mb |
| 20260505173139 | 56 | 250 | 0.0 | 6.0 | 0.00 | 0.24 | 0.14 | 90 | 1016.2 |
| 20260505172637 | 56 | 251 | 0.0 | 6.0 | 0.00 | 0.24 | 0.14 | 90 | 1016.1 |
| 20260505172135 | 56 | 252 | 0.0 | 4.0 | 0.00 | 0.24 | 0.14 | 91 | 1016.1 |
| 20260505171635 | 56 | 252 | 0.0 | 4.0 | 0.00 | 0.24 | 0.14 | 91 | 1016.1 |
| 20260505171135 | 56 | 252 | 0.0 | 0.0 | 0.00 | 0.24 | 0.14 | 92 | 1016.1 |
| 20260505170635 | 55 | 252 | 0.0 | 0.0 | 0.00 | 0.24 | 0.14 | 92 | 1016.2 |
| 20260505170350 | 55 | 252 | 0.0 | 0.0 | 0.00 | 0.24 | 0.14 | 92 | 1016.2 |
| 20260505165832 | 55 | 252 | 0.0 | 0.0 | 0.00 | 0.24 | 0.14 | 92 | 1016.2 |
| 20260505165346 | 55 | 252 | 0.0 | 0.0 | 0.00 | 0.24 | 0.14 | 92 | 1016.2 |
| 20260505164635 | 55 | 252 | 0.0 | 0.0 | 0.00 | 0.24 | 0.14 | 93 | 1016.2 |
| 20260505164134 | 55 | 252 | 0.0 | 0.0 | 0.00 | 0.24 | 0.14 | 93 | 1016.2 |
| 20260505163633 | 54 | 252 | 0.0 | 0.0 | 0.00 | 0.24 | 0.14 | 93 | 1016.1 |
| 20260505163622 | 54 | 252 | 0.0 | 0.0 | 0.00 | 0.24 | 0.14 | 93 | 1016.1 |
| 20260505163348 | 54 | 252 | 0.0 | 0.0 | 0.00 | 0.24 | 0.14 | 93 | 1016.1 |
| 20260505162633 | 54 | 252 | 0.0 | 0.0 | 0.00 | 0.24 | 0.14 | 93 | 1016.2 |
| 20260505162344 | 54 | 252 | 0.0 | 0.0 | 0.00 | 0.24 | 0.14 | 93 | 1016.1 |
| 20260505161630 | 54 | 252 | 0.0 | 0.0 | 0.00 | 0.24 | 0.14 | 93 | 1016.1 |
| 20260505161132 | 54 | 252 | 0.0 | 0.0 | 0.00 | 0.24 | 0.14 | 94 | 1016.0 |
| 20260505160631 | 53 | 252 | 0.0 | 0.0 | 0.00 | 0.24 | 0.14 | 94 | 1016.0 |
| 20260505160129 | 53 | 252 | 0.0 | 0.0 | 0.00 | 0.24 | 0.14 | 94 | 1015.9 |
| 20260505153124 | 53 | 252 | 0.0 | 0.0 | 0.00 | 0.24 | 0.14 | 94 | 1015.7 |
| 20260505152625 | 53 | 252 | 0.0 | 2.0 | 0.00 | 0.24 | 0.14 | 94 | 1015.7 |
| 20260505152125 | 53 | 252 | 0.0 | 4.0 | 0.00 | 0.24 | 0.14 | 94 | 1015.6 |
| 20260505151625 | 53 | 252 | 0.0 | 4.0 | 0.00 | 0.24 | 0.14 | 94 | 1015.6 |
| 20260505151125 | 53 | 252 | 0.0 | 1.0 | 0.00 | 0.24 | 0.14 | 94 | 1015.6 |
| 20260505150625 | 53 | 252 | 0.0 | 4.0 | 0.00 | 0.24 | 0.14 | 94 | 1015.5 |
| 20260505150125 | 53 | 252 | 0.0 | 4.0 | 0.00 | 0.24 | 0.14 | 94 | 1015.6 |
| 20260505140617 | 52 | 252 | 0.0 | 0.0 | 0.00 | 0.24 | 0.14 | 94 | 1015.1 |
| 20260505140115 | 52 | 252 | 0.0 | 0.0 | 0.00 | 0.24 | 0.14 | 94 | 1015.3 |
| 20260505124559 | 51 | 252 | 0.0 | 0.0 | 0.00 | 0.24 | 0.14 | 93 | 1014.8 |
| 20260505124056 | 51 | 252 | 0.0 | 0.0 | 0.00 | 0.24 | 0.14 | 93 | 1014.9 |
| 20260505123554 | 51 | 252 | 0.0 | 0.0 | 0.00 | 0.24 | 0.14 | 93 | 1014.8 |
| 20260505123053 | 51 | 252 | 0.0 | 0.0 | 0.00 | 0.24 | 0.14 | 93 | 1014.9 |
| 20260505122552 | 51 | 252 | 0.0 | 0.0 | 0.00 | 0.24 | 0.14 | 93 | 1015.1 |
| 20260505122053 | 51 | 252 | 0.0 | 0.0 | 0.00 | 0.24 | 0.14 | 93 | 1015.0 |
| 20260505121550 | 51 | 252 | 0.0 | 0.0 | 0.00 | 0.24 | 0.14 | 93 | 1015.1 |
| 20260505121049 | 51 | 252 | 0.0 | 0.0 | 0.01 | 0.24 | 0.14 | 93 | 1015.1 |
| 20260505120549 | 51 | 252 | 0.0 | 0.0 | 0.01 | 0.24 | 0.14 | 93 | 1015.1 |
| 20260505120058 | 51 | 252 | 0.0 | 0.0 | 0.01 | 0.24 | 0.14 | 93 | 1015.1 |
| 20260505120048 | 51 | 252 | 0.0 | 0.0 | 0.01 | 0.24 | 0.14 | 93 | 1015.1 |
| 20260505115800 | 51 | 252 | 0.0 | 0.0 | 0.01 | 0.24 | 0.14 | 93 | 1015.1 |
| 20260505115048 | 51 | 252 | 0.0 | 0.0 | 0.01 | 0.24 | 0.14 | 93 | 1015.0 |
| 20260505114548 | 51 | 252 | 0.0 | 0.0 | 0.01 | 0.24 | 0.14 | 93 | 1014.9 |
| 20260505114048 | 51 | 252 | 0.0 | 0.0 | 0.01 | 0.24 | 0.14 | 93 | 1014.9 |
| 20260505113547 | 51 | 252 | 0.0 | 0.0 | 0.01 | 0.24 | 0.14 | 93 | 1014.9 |
| 20260505113044 | 51 | 252 | 0.0 | 0.0 | 0.01 | 0.24 | 0.14 | 93 | 1014.7 |
| 20260505112758 | 51 | 252 | 0.0 | 0.0 | 0.01 | 0.24 | 0.14 | 93 | 1014.7 |
| 20260505112044 | 51 | 252 | 0.0 | 0.0 | 0.01 | 0.24 | 0.14 | 93 | 1014.8 |
| 20260505111544 | 51 | 252 | 0.0 | 0.0 | 0.01 | 0.24 | 0.14 | 93 | 1015.0 |
| 20260505111044 | 51 | 252 | 0.0 | 0.0 | 0.00 | 0.23 | 0.13 | 93 | 1015.1 |
| 20260505110545 | 51 | 252 | 0.0 | 0.0 | 0.00 | 0.23 | 0.13 | 93 | 1015.2 |
| 20260505110258 | 51 | 252 | 0.0 | 0.0 | 0.00 | 0.23 | 0.13 | 93 | 1015.2 |
| 20260505102033 | 51 | 252 | 0.0 | 0.0 | 0.00 | 0.23 | 0.13 | 93 | 1015.4 |
| 20260505101534 | 51 | 252 | 0.0 | 0.0 | 0.00 | 0.23 | 0.13 | 93 | 1015.4 |
| 20260505101035 | 51 | 252 | 0.0 | 0.0 | 0.00 | 0.23 | 0.13 | 93 | 1015.2 |
| 20260505100534 | 51 | 252 | 0.0 | 0.0 | 0.01 | 0.23 | 0.13 | 93 | 1015.0 |
| 20260505100034 | 51 | 252 | 0.0 | 2.0 | 0.01 | 0.23 | 0.13 | 93 | 1015.0 |
| 20260505095534 | 51 | 252 | 0.0 | 2.0 | 0.01 | 0.23 | 0.13 | 93 | 1015.2 |
| 20260505095032 | 51 | 252 | 0.0 | 0.0 | 0.02 | 0.23 | 0.13 | 93 | 1015.3 |
| 20260505094532 | 51 | 252 | 0.0 | 1.0 | 0.02 | 0.23 | 0.13 | 93 | 1015.3 |
| 20260505094032 | 51 | 252 | 0.0 | 1.0 | 0.02 | 0.23 | 0.13 | 93 | 1015.4 |
| 20260505093533 | 51 | 252 | 0.0 | 0.0 | 0.02 | 0.23 | 0.13 | 93 | 1015.5 |
| 20260505093032 | 51 | 252 | 0.0 | 0.0 | 0.03 | 0.23 | 0.13 | 93 | 1015.5 |
| 20260505092744 | 51 | 252 | 0.0 | 0.0 | 0.04 | 0.23 | 0.13 | 93 | 1015.6 |
| 20260505092030 | 51 | 252 | 0.0 | 0.0 | 0.04 | 0.23 | 0.13 | 93 | 1015.5 |
| 20260505091530 | 51 | 252 | 0.0 | 0.0 | 0.05 | 0.23 | 0.13 | 93 | 1015.4 |
| 20260505091030 | 51 | 252 | 0.0 | 0.0 | 0.06 | 0.23 | 0.13 | 93 | 1015.3 |
| 20260505090530 | 51 | 252 | 0.0 | 0.0 | 0.06 | 0.22 | 0.12 | 93 | 1015.5 |
| 20260505090030 | 51 | 252 | 0.0 | 0.0 | 0.06 | 0.22 | 0.12 | 93 | 1015.5 |
| 20260505085530 | 51 | 252 | 0.0 | 0.0 | 0.07 | 0.22 | 0.12 | 92 | 1015.7 |
| 20260505085030 | 51 | 252 | 0.0 | 0.0 | 0.06 | 0.21 | 0.12 | 92 | 1015.8 |
| 20260505084530 | 51 | 252 | 0.0 | 0.0 | 0.06 | 0.21 | 0.11 | 92 | 1015.8 |
| 20260505084029 | 51 | 252 | 0.0 | 0.0 | 0.07 | 0.21 | 0.11 | 92 | 1015.9 |
| 20260505083530 | 51 | 252 | 0.0 | 0.0 | 0.08 | 0.21 | 0.11 | 92 | 1015.8 |
| 20260505083030 | 51 | 252 | 0.0 | 0.0 | 0.07 | 0.20 | 0.10 | 92 | 1015.8 |
| 20260505082531 | 51 | 252 | 0.0 | 0.0 | 0.07 | 0.19 | 0.09 | 92 | 1015.7 |
| 20260505082030 | 51 | 252 | 0.0 | 0.0 | 0.07 | 0.19 | 0.09 | 92 | 1015.6 |
| 20260505081530 | 51 | 252 | 0.0 | 0.0 | 0.07 | 0.18 | 0.08 | 92 | 1015.6 |
| 20260505081030 | 51 | 252 | 0.0 | 0.0 | 0.06 | 0.17 | 0.07 | 92 | 1015.6 |
| 20260505080529 | 51 | 252 | 0.0 | 0.0 | 0.06 | 0.16 | 0.06 | 92 | 1015.7 |
| 20260505080030 | 51 | 252 | 0.0 | 0.0 | 0.06 | 0.16 | 0.06 | 92 | 1015.8 |
| 20260505075742 | 51 | 252 | 0.0 | 0.0 | 0.06 | 0.15 | 0.05 | 92 | 1015.8 |
| 20260505075030 | 51 | 252 | 0.0 | 0.0 | 0.06 | 0.15 | 0.05 | 92 | 1015.9 |
| 20260505074529 | 51 | 252 | 0.0 | 0.0 | 0.06 | 0.15 | 0.05 | 92 | 1016.0 |
| 20260505074241 | 51 | 252 | 0.0 | 0.0 | 0.05 | 0.14 | 0.04 | 92 | 1015.9 |
| 20260505073530 | 51 | 252 | 0.0 | 0.0 | 0.04 | 0.13 | 0.03 | 92 | 1015.9 |
| 20260505073030 | 51 | 252 | 0.0 | 0.0 | 0.05 | 0.13 | 0.03 | 92 | 1015.9 |
| 20260505072530 | 51 | 252 | 0.0 | 0.0 | 0.04 | 0.12 | 0.02 | 91 | 1015.8 |
| 20260505072030 | 51 | 252 | 0.0 | 0.0 | 0.04 | 0.12 | 0.02 | 91 | 1015.9 |
| 20260505071530 | 51 | 252 | 0.0 | 0.0 | 0.03 | 0.11 | 0.01 | 91 | 1016.0 |
| 20260505071030 | 51 | 252 | 0.0 | 0.0 | 0.04 | 0.11 | 0.01 | 91 | 1016.1 |
| 20260505070530 | 51 | 252 | 0.0 | 0.0 | 0.03 | 0.10 | 0.00 | 91 | 1016.2 |
| 20260505070029 | 51 | 252 | 0.0 | 0.0 | 0.03 | 0.10 | 0.00 | 91 | 1016.3 |
| 20260505065529 | 51 | 252 | 0.0 | 0.0 | 0.02 | 0.09 | 0.09 | 91 | 1016.2 |
| 20260505065235 | 51 | 252 | 0.0 | 0.0 | 0.03 | 0.09 | 0.09 | 91 | 1016.3 |
| 20260505064525 | 51 | 252 | 0.0 | 0.0 | 0.03 | 0.09 | 0.09 | 91 | 1016.1 |
| 20260505064025 | 51 | 252 | 0.0 | 0.0 | 0.03 | 0.09 | 0.09 | 91 | 1016.0 |
| 20260505063525 | 51 | 252 | 0.0 | 0.0 | 0.04 | 0.09 | 0.09 | 91 | 1015.9 |
| 20260505063025 | 51 | 252 | 0.0 | 0.0 | 0.03 | 0.08 | 0.08 | 91 | 1015.8 |
| 20260505062525 | 51 | 252 | 0.0 | 0.0 | 0.03 | 0.08 | 0.08 | 91 | 1015.7 |
| 20260505062024 | 51 | 252 | 0.0 | 0.0 | 0.03 | 0.08 | 0.08 | 91 | 1015.7 |
| 20260505061525 | 51 | 252 | 0.0 | 0.0 | 0.03 | 0.08 | 0.08 | 90 | 1015.7 |
| 20260505061025 | 51 | 252 | 0.0 | 0.0 | 0.03 | 0.07 | 0.07 | 90 | 1015.5 |
| 20260505060737 | 52 | 252 | 0.0 | 0.0 | 0.03 | 0.07 | 0.07 | 90 | 1015.6 |
| 20260505060024 | 52 | 253 | 0.0 | 0.0 | 0.04 | 0.07 | 0.07 | 90 | 1015.5 |
| 20260505055525 | 52 | 253 | 0.0 | 0.0 | 0.04 | 0.07 | 0.07 | 90 | 1015.6 |
| 20260505055025 | 52 | 253 | 0.0 | 0.0 | 0.04 | 0.06 | 0.06 | 90 | 1015.7 |
| 20260505054525 | 52 | 253 | 0.0 | 0.0 | 0.04 | 0.06 | 0.06 | 90 | 1015.8 |
| 20260505054024 | 52 | 253 | 0.0 | 0.0 | 0.05 | 0.06 | 0.06 | 90 | 1015.8 |
| 20260505053525 | 52 | 253 | 0.0 | 0.0 | 0.04 | 0.05 | 0.05 | 89 | 1015.8 |
| 20260505053021 | 52 | 253 | 0.0 | 0.0 | 0.04 | 0.05 | 0.05 | 90 | 1015.7 |
| 20260505052736 | 52 | 253 | 0.0 | 0.0 | 0.04 | 0.05 | 0.05 | 89 | 1015.7 |
| 20260505052021 | 52 | 253 | 0.0 | 0.0 | 0.05 | 0.05 | 0.05 | 89 | 1015.7 |
| 20260505051520 | 52 | 253 | 0.0 | 0.0 | 0.05 | 0.05 | 0.05 | 89 | 1015.8 |
| 20260505051021 | 53 | 253 | 0.0 | 0.0 | 0.04 | 0.04 | 0.04 | 89 | 1015.8 |
| 20260505050520 | 53 | 253 | 0.0 | 0.0 | 0.04 | 0.04 | 0.04 | 89 | 1015.9 |
| 20260505041509 | 54 | 253 | 0.0 | 1.0 | 0.00 | 0.00 | 0.00 | 86 | 1016.4 |
| 20260505041243 | 54 | 253 | 0.0 | 0.0 | 0.00 | 0.00 | 0.00 | 85 | 1016.4 |